[[{"header":{"parameterUnit":"m.s-1","parameterCategory":1,"la1":30.2991,"la2":30.254,"lo1":-89.0895,"lo2":-89.0444,"dy":0.0017,"dx":0.0017,"nx":28,"ny":28,"refTime":"2026-01-01T03:00:00:Z","depth":0,"parameterNumber":2,"parameterNumberName":"U-component_of_WINDS"},"data":[0,0,0,0,0,0,0,0,0,0,0,0,0,0,0,0,0,0,0,0,0,0,0,0,0,0,0,0,0,0,0,0,0,0,0,0,0,0,0,0,0,0,0,0,0,0,0,0,0,0,0,0,0,0,0,0,0,0,0.6059,0.606,0,0.6158,0.6159,0.616,0.6141,0.6139,0.6137,0.6136,0.6242,0.6246,0.6251,0,0,0,0,0,0,0,0,0,0,0,0,0,0.5858,0.5861,0.6058,0.606,0.6061,0.6157,0.6159,0.616,0.6141,0.6139,0.6137,0.6135,0.624,0.6246,0.6251,0,0,0,0,0,0,0,0,0,0,0,0,0,0.595,0.5863,0.6058,0.6063,0.6064,0.6157,0.6159,0.616,0.6142,0.6139,0.6136,0.6134,0.6238,0.6245,0.6252,0.6347,0,0,0.6272,0.6275,0,0,0,0,0,0,0,0,0.5945,0.5957,0.6061,0.6063,0.6065,0.6134,0.6127,0.6223,0.6142,0.6112,0.6135,0.6132,0.6208,0.6217,0.6242,0.6352,0.6357,0.6273,0.6277,0.628,0.6282,0,0,0,0,0,0,0,0.5938,0.5953,0.6098,0.6063,0.6065,0.6062,0.6072,0.6145,0.6175,0.6115,0.6114,0.6125,0.6209,0.6236,0.6244,0.6358,0.6273,0.6279,0.6283,0.6286,0.6553,0.6556,0,0,0,0,0,0,0.593,0.5948,0.6095,0.6101,0.5997,0.6067,0.6079,0.6115,0.6174,0.618,0.6128,0.6124,0.6225,0.6237,0.6248,0.6365,0.628,0.6286,0.629,0.655,0.6554,0.6557,0,0,0,0,0,0,0.5925,0.5943,0.6091,0.6024,0.6042,0.6074,0.6114,0.6118,0.6145,0.6183,0.6189,0.6149,0.6224,0.6239,0.6323,0.6368,0.6289,0.6295,0.6546,0.6551,0.6555,0.6598,0,0,0,0,0,0,0.592,0.5941,0.5977,0.6025,0.6046,0.6162,0.6117,0.6122,0.6156,0.6152,0.6205,0.6211,0.6223,0.6313,0.6329,0.6376,0.6301,0.6542,0.6548,0.6554,0.6593,0.6603,0.6612,0,0,0,0,0,0.5912,0.5986,0.5979,0.5997,0.6091,0.6165,0.6177,0.6188,0.6159,0.6196,0.6221,0.621,0.636,0.6321,0.634,0.6389,0.654,0.6547,0.6553,0.6588,0.6601,0.6612,0,0,0,0,0,0,0.5944,0.5992,0.5985,0.6076,0.6116,0.6161,0.6208,0.6201,0.6252,0.6247,0.6259,0.6271,0.6356,0.6381,0.6337,0.6485,0.6446,0.6457,0.6466,0.6479,0.6489,0.6481,0.6306,0,0,0,0,0,0.5962,0.6016,0.6056,0.6132,0.6153,0.6177,0.621,0.6214,0.6257,0.6274,0.6305,0.6349,0.6406,0.6444,0.6498,0.6596,0.6608,0.6639,0.6649,0.6657,0.6666,0.6721,0.6735,0.6579,0.6579,0.6579,0,0,0.5999,0.6031,0.6065,0.6139,0.6171,0.6229,0.6192,0.6254,0.6298,0.6285,0.6365,0.639,0.6439,0.653,0.6572,0.6554,0.6712,0.6665,0.6671,0.6677,0.6729,0.6744,0.6757,0.6584,0.6583,0.6582,0,0,0.6095,0.6125,0.6192,0.6225,0.6273,0.6288,0.6305,0.6351,0.6366,0.6447,0.6439,0.6491,0.6589,0.6625,0.6656,0.6766,0.6758,0.6784,0.6836,0.6889,0.6901,0.6912,0.6953,0.6967,0.6793,0.6793,0.6793,0,0.6136,0.6221,0.6228,0.6292,0.6325,0.6314,0.6383,0.6414,0.6479,0.6503,0.648,0.6603,0.6636,0.6736,0.6762,0.6787,0.6808,0.6778,0.6899,0.691,0.692,0.6959,0.6974,0.6796,0.6796,0.6795,0.6795,0,0.6268,0.6328,0.6376,0.6437,0.6476,0.6542,0.6561,0.6599,0.66,0.6619,0.6702,0.674,0.6803,0.6827,0.6829,0.6927,0.6914,0.6895,0.6857,0.6938,0.6975,0.6989,0.68,0.6799,0.6798,0.6798,0,0,0.6389,0.6452,0.647,0.6498,0.655,0.6597,0.6663,0.6722,0.6756,0.68,0.6857,0.694,0.6922,0.6958,0.6964,0.701,0.7096,0.6986,0.6987,0.7006,0.7208,0.7223,0.724,0.709,0.7093,0.7095,0.7205,0,0.6491,0.6606,0.6615,0.6719,0.6774,0.6765,0.6822,0.6862,0.6881,0.6932,0.6953,0.7012,0.6984,0.7005,0.7051,0.7076,0.7137,0.7068,0.7145,0.7148,0.7134,0.7259,0.7275,0.7376,0.7219,0.7221,0.7223,0,0.6626,0.6674,0.6783,0.6827,0.6851,0.6903,0.6958,0.7007,0.7051,0.7062,0.7101,0.7101,0.717,0.7128,0.7224,0.7177,0.7209,0.7226,0.723,0.7239,0.7191,0.7273,0.7409,0.7424,0.7246,0.7244,0.7242,0,0.6704,0.6796,0.6873,0.6897,0.695,0.6987,0.7011,0.7053,0.7089,0.7138,0.7161,0.7218,0.725,0.7294,0.731,0.7277,0.7407,0.7365,0.7419,0.7419,0.7448,0.7446,0.7592,0.7466,0.7466,0.7466,0.7466,0,0.6819,0.6886,0.6909,0.6956,0.7032,0.7042,0.7117,0.714,0.7177,0.723,0.7226,0.7276,0.7293,0.7347,0.7359,0.7438,0.7452,0.7464,0.7467,0.7465,0.7464,0.7487,0.7481,0.747,0.7469,0.7468,0.7468,0,0.6919,0.6937,0.7021,0.7064,0.7077,0.7131,0.7169,0.7216,0.7233,0.7301,0.7317,0.7346,0.7409,0.7428,0.7505,0.7513,0.7606,0.7602,0.7591,0.7591,0.7645,0.764,0.7812,0.7836,0.7693,0.7694,0.7695,0,0.6991,0.7043,0.7092,0.7126,0.7152,0.7207,0.7243,0.7255,0.7293,0.7348,0.7388,0.745,0.75,0.7601,0.763,0.7689,0.7687,0.7743,0.7696,0.7693,0.7689,0.7687,0.7692,0.7753,0.7754,0.7755,0.7756,0,0.7118,0.7124,0.7175,0.7229,0.7272,0.7316,0.7358,0.7387,0.7405,0.7448,0.7511,0.755,0.7627,0.7689,0.7749,0.7776,0.777,0.7771,0.7786,0.7786,0.7778,0.7784,0.7616,0.7767,0.7766,0.7765,0.7765,0.7764,0.7208,0.7253,0.7295,0.7352,0.7384,0.7424,0.747,0.7493,0.7546,0.7609,0.7613,0.7682,0.7726,0.7805,0.7835,0.789,0.7874,0.7897,0.7903,0.7909,0.7913,0.7768,0.7901,0.7901,0.79,0.79,0.79,0,0.7335,0.7361,0.7413,0.7472,0.7517,0.7506,0.7552,0.7591,0.7651,0.7692,0.7741,0.7815,0.7875,0.7908,0.7968,0.8006,0.8005,0.8022,0.802,0.8027,0.7924,0.7904,0.8022,0.8022,0.8022,0.8022,0.8022,0.8022,0.7406,0.7483,0.7494,0.7588,0.7614,0.768,0.7708,0.7745,0.7778,0.7859,0.7909,0.7929,0.7968,0.8031,0.8086,0.8094,0.8117,0.8136,0.8143,0.8046,0.8034,0.8022,0.8004,0.8141,0.8141,0.8242,0.8243,0.8243]},{"header":{"parameterUnit":"m.s-1","parameterCategory":1,"la1":30.2991,"la2":30.254,"lo1":-89.0895,"lo2":-89.0444,"dy":0.0017,"dx":0.0017,"nx":28,"ny":28,"refTime":"2026-01-01T03:00:00:Z","depth":0,"parameterNumber":3,"parameterNumberName":"V-component_of_WINDS"},"data":[0,0,0,0,0,0,0,0,0,0,0,0,0,0,0,0,0,0,0,0,0,0,0,0,0,0,0,0,0,0,0,0,0,0,0,0,0,0,0,0,0,0,0,0,0,0,0,0,0,0,0,0,0,0,0,0,0,0,6.0533,6.0534,0,6.0594,6.0595,6.0596,6.0565,6.0563,6.0561,6.056,6.0617,6.062,6.0623,0,0,0,0,0,0,0,0,0,0,0,0,0,6.0384,6.0386,6.0533,6.0534,6.0535,6.0594,6.0595,6.0596,6.0565,6.0563,6.0561,6.0559,6.0616,6.062,6.0623,0,0,0,0,0,0,0,0,0,0,0,0,0,6.0447,6.0387,6.0533,6.0526,6.0526,6.0594,6.0595,6.0596,6.0565,6.0563,6.0561,6.0558,6.0615,6.0619,6.0624,6.07,0,0,6.0638,6.064,0,0,0,0,0,0,0,0,6.0443,6.0452,6.0527,6.0527,6.0527,6.057,6.0563,6.0631,6.0566,6.055,6.056,6.0557,6.0603,6.0608,6.0625,6.0703,6.0705,6.0638,6.0641,6.0643,6.0644,0,0,0,0,0,0,0,6.0439,6.045,6.0557,6.0528,6.0528,6.0519,6.0525,6.0576,6.0589,6.0552,6.0549,6.0557,6.0603,6.0621,6.0626,6.0706,6.0638,6.0642,6.0645,6.0647,6.085,6.0852,0,0,0,0,0,0,6.0436,6.0446,6.0555,6.0559,6.0479,6.0523,6.053,6.0558,6.0589,6.0591,6.0559,6.0556,6.0614,6.0621,6.0628,6.072,6.0643,6.0647,6.065,6.0847,6.085,6.0853,0,0,0,0,0,0,6.0433,6.0446,6.0553,6.0502,6.0515,6.0529,6.056,6.0561,6.0579,6.0595,6.0596,6.0576,6.0612,6.0622,6.0683,6.0721,6.0649,6.0653,6.0844,6.0848,6.0852,6.0904,0,0,0,0,0,0,6.0428,6.0445,6.0475,6.0503,6.0518,6.0608,6.0562,6.0564,6.0587,6.0583,6.061,6.0613,6.0611,6.0676,6.0687,6.0726,6.0657,6.0841,6.0846,6.0851,6.0899,6.0909,6.0918,0,0,0,0,0,6.0423,6.0485,6.0477,6.049,6.0556,6.061,6.0619,6.0618,6.0591,6.062,6.0631,6.0612,6.0715,6.0683,6.0695,6.0736,6.0838,6.0844,6.085,6.0894,6.0907,6.0918,0,0,0,0,0,0,6.0459,6.0489,6.0479,6.0553,6.058,6.0605,6.0642,6.0631,6.0664,6.0658,6.0654,6.066,6.0724,6.0736,6.0699,6.0811,6.0772,6.0781,6.0802,6.0814,6.0823,6.0819,6.066,0,0,0,0,0,6.0476,6.0519,6.0542,6.0605,6.0619,6.0629,6.0652,6.0649,6.0676,6.0686,6.0701,6.0726,6.0765,6.079,6.0826,6.09,6.0906,6.0934,6.0944,6.0952,6.0959,6.1,6.1014,6.0873,6.0873,6.0873,0,0,6.051,6.0532,6.0559,6.0613,6.0633,6.0677,6.0638,6.0686,6.0718,6.0693,6.0753,6.0764,6.0792,6.0861,6.0892,6.0872,6.0999,6.0959,6.0965,6.0969,6.1008,6.1021,6.1033,6.0877,6.0877,6.0876,0,0,6.0595,6.0616,6.0672,6.0694,6.0726,6.0732,6.0745,6.0773,6.0781,6.0841,6.0824,6.0861,6.0927,6.0948,6.0967,6.1062,6.1046,6.1074,6.1124,6.1164,6.1175,6.1185,6.122,6.1232,6.1081,6.1081,6.1081,0,6.0634,6.0701,6.0701,6.0751,6.0775,6.0757,6.0812,6.0832,6.0874,6.089,6.0868,6.0952,6.0969,6.1043,6.1067,6.1082,6.1097,6.107,6.1174,6.1184,6.1193,6.1226,6.1239,6.1084,6.1084,6.1084,6.1083,0,6.0747,6.0794,6.0834,6.0878,6.0906,6.0958,6.0965,6.0993,6.0988,6.0996,6.1058,6.1078,6.1119,6.1136,6.113,6.1209,6.1196,6.1175,6.1135,6.121,6.124,6.1253,6.1089,6.1088,6.1087,6.1086,0,0,6.0856,6.09,6.0915,6.0935,6.097,6.1005,6.1056,6.1098,6.1123,6.1152,6.1195,6.1252,6.1232,6.1254,6.1251,6.1286,6.1361,6.126,6.126,6.1279,6.1451,6.1467,6.1482,6.1351,6.1353,6.1355,6.1449,0,6.0944,6.1037,6.1038,6.1122,6.1166,6.115,6.1194,6.122,6.1229,6.1266,6.1275,6.1316,6.1287,6.13,6.1334,6.1345,6.1396,6.1338,6.139,6.1392,6.1384,6.1498,6.1516,6.1603,6.1461,6.1463,6.1464,0,6.106,6.1096,6.1185,6.1215,6.1233,6.1274,6.1313,6.1348,6.1377,6.1381,6.1407,6.1398,6.1449,6.1409,6.1479,6.144,6.1461,6.147,6.1473,6.1478,6.1433,6.1507,6.163,6.1644,6.1483,6.1481,6.148,0,6.1132,6.1202,6.1265,6.1282,6.1319,6.1348,6.1364,6.139,6.1415,6.1449,6.1465,6.1503,6.1524,6.1554,6.1556,6.1526,6.1627,6.1586,6.1631,6.1632,6.1654,6.1652,6.1783,6.1666,6.1666,6.1666,6.1666,0,6.1231,6.1286,6.1298,6.1337,6.1398,6.1399,6.1459,6.1472,6.1496,6.1536,6.1523,6.1561,6.1561,6.1599,6.1601,6.1659,6.1668,6.1673,6.1673,6.1675,6.1674,6.1688,6.1683,6.1669,6.1669,6.1668,6.1667,0,6.1321,6.1332,6.1399,6.1429,6.1438,6.1482,6.1506,6.1543,6.1551,6.1602,6.1614,6.1627,6.1671,6.1676,6.1727,6.1728,6.1799,6.1792,6.179,6.1789,6.1835,6.1831,6.198,6.2,6.187,6.1871,6.1872,0,6.1384,6.1427,6.1462,6.1489,6.1508,6.1551,6.1578,6.158,6.1608,6.1645,6.1677,6.172,6.1755,6.1826,6.1839,6.1878,6.1873,6.1922,6.1878,6.1879,6.1874,6.1872,6.1877,6.1931,6.1932,6.1933,6.1934,0,6.1495,6.1499,6.1539,6.1581,6.1614,6.1647,6.1677,6.17,6.1706,6.1738,6.1784,6.1812,6.1865,6.1908,6.1947,6.1962,6.1949,6.1948,6.1961,6.1963,6.1961,6.1964,6.1814,6.1945,6.1944,6.1943,6.1942,6.1942,6.1574,6.1612,6.1644,6.1689,6.1713,6.1742,6.1778,6.1793,6.1832,6.1877,6.1875,6.1927,6.1954,6.2006,6.2023,6.2063,6.2046,6.2064,6.2069,6.2074,6.2079,6.1955,6.207,6.2069,6.2069,6.2069,6.2069,0,6.1685,6.1705,6.1747,6.1792,6.1828,6.1815,6.1848,6.1878,6.1924,6.1952,6.1988,6.2041,6.2084,6.2101,6.2142,6.217,6.2165,6.2181,6.2179,6.2183,6.2091,6.2076,6.2184,6.2184,6.2184,6.2184,6.2184,6.2184,6.1748,6.1811,6.1819,6.1894,6.1912,6.1964,6.1985,6.2012,6.2034,6.2095,6.2131,6.2143,6.2166,6.221,6.2248,6.2251,6.2267,6.2286,6.2287,6.2201,6.2189,6.2178,6.2164,6.2289,6.2289,6.2376,6.2377,6.2377]}]]